GW6710 Weather Reports


time (UTC)temp
F
wind
direction
speed
knots
gust
knots
rain 1hr
in
rain 24hr
in
rain mn
in
humidity
%
barometer
mb
20260502233040 66 33 5.2 13.0 0.00 0.00 0.00 35 1015.4
20260502231542 67 32 6.1 9.6 0.00 0.00 0.00 32 1015.5
20260502230041 67 82 3.5 7.8 0.00 0.00 0.00 31 1015.6
20260502224544 66 38 6.1 12.2 0.00 0.00 0.00 32 1015.9
20260502223042 66 32 5.2 10.4 0.00 0.00 0.00 32 1015.9
20260502221542 67 360 1.7 15.6 0.00 0.00 0.00 32 1016.1
20260502220038 66 35 5.2 12.2 0.00 0.00 0.00 33 1016.2
20260502214552 67 36 5.2 14.8 0.00 0.00 0.00 32 1016.3
20260502213036 68 28 0.0 7.8 0.00 0.00 0.00 31 1016.4
20260502211541 67 36 4.3 9.6 0.00 0.00 0.00 31 1016.6
20260502210048 67 360 6.1 12.2 0.00 0.00 0.00 32 1016.8
20260502204540 65 360 4.3 10.4 0.00 0.00 0.00 33 1017.2
20260502203046 65 360 6.1 10.4 0.00 0.00 0.00 33 1017.2
20260502201537 65 52 5.2 10.4 0.00 0.00 0.00 33 1017.3
20260502200036 64 32 2.6 13.9 0.00 0.00 0.00 34 1017.5
20260502194539 65 360 8.7 12.2 0.00 0.00 0.00 34 1017.5
20260502193040 66 18 2.6 11.3 0.00 0.00 0.00 31 1017.6
20260502191536 65 18 1.7 9.6 0.00 0.00 0.00 33 1017.9
20260502190043 65 84 7.0 11.3 0.00 0.00 0.00 32 1018.1
20260502184541 66 338 4.3 11.3 0.00 0.00 0.00 33 1018.3
20260502183040 64 90 4.3 12.2 0.00 0.00 0.00 34 1018.4
20260502181544 64 360 3.5 12.2 0.00 0.00 0.00 35 1018.7
20260502163049 62 360 13.0 19.1 0.00 0.00 0.00 38 1018.8
20260502161539 62 360 11.3 16.5 0.00 0.00 0.00 38 1018.9
20260502151553 59 360 12.2 15.6 0.00 0.00 0.00 40 1018.7
20260502123047 45 360 7.0 10.4 0.00 0.00 0.00 50 1017.1
20260502121538 46 360 7.0 10.4 0.00 0.00 0.00 47 1016.7
20260502114537 45 360 2.6 7.0 0.00 0.00 0.00 46 1016.4
20260502113041 46 333 3.5 5.2 0.00 0.00 0.00 46 1016.2
20260502111540 46 309 4.3 5.2 0.00 0.00 0.00 45 1016.2
20260502110041 49 360 6.1 8.7 0.00 0.00 0.00 43 1015.9
20260502104539 47 360 4.3 7.8 0.00 0.00 0.00 45 1015.7
20260502103037 47 360 8.7 10.4 0.00 0.00 0.00 44 1015.6
20260502101537 49 360 6.1 8.7 0.00 0.00 0.00 42 1015.5
20260502100107 49 26 5.2 9.6 0.00 0.00 0.00 42 1015.5
20260502070047 55 360 2.6 12.2 0.00 0.00 0.00 32 1014.4
20260502064541 54 360 9.6 11.3 0.00 0.00 0.00 33 1014.4
20260502063037 55 307 5.2 12.2 0.00 0.00 0.00 31 1014.4
20260502061539 56 360 8.7 10.4 0.00 0.00 0.00 30 1014.3
20260502060042 54 321 3.5 5.2 0.00 0.00 0.00 31 1014.4
20260502054539 55 360 4.3 7.0 0.00 0.00 0.00 29 1014.3
20260502053039 57 360 3.5 7.0 0.00 0.00 0.00 27 1014.2
20260502051539 59 360 3.5 8.7 0.00 0.00 0.00 25 1014.3
20260502050039 63 360 3.5 7.8 0.00 0.00 0.00 23 1014.0
20260502044541 64 360 4.3 7.8 0.00 0.00 0.00 23 1014.2
20260502043042 63 360 4.3 7.0 0.00 0.00 0.00 25 1014.4
20260502041539 65 360 7.8 9.6 0.00 0.00 0.00 23 1014.3
20260502040040 64 360 1.7 1.7 0.00 0.00 0.00 24 1014.0
20260502034539 65 0 0.0 1.7 0.00 0.00 0.00 23 1013.9
20260502033037 66 0 0.0 1.7 0.00 0.00 0.00 23 1013.7
20260502031540 66 360 0.0 1.7 0.00 0.00 0.00 23 1013.6
20260502030039 65 360 0.0 0.9 0.00 0.00 0.00 22 1013.5
20260502024537 68 0 0.0 1.7 0.00 0.00 0.00 20 1013.3
20260502023035 69 0 0.0 1.7 0.00 0.00 0.00 21 1013.2
20260502021538 70 0 0.0 1.7 0.00 0.00 0.00 20 1013.3
20260502020042 72 0 0.0 1.7 0.00 0.00 0.00 19 1013.2
20260502014540 73 360 1.7 4.3 0.00 0.00 0.00 17 1013.3
20260502013040 73 360 3.5 7.0 0.00 0.00 0.00 18 1013.3
20260502011548 74 360 3.5 7.8 0.00 0.00 0.00 17 1013.3
20260502010043 74 360 6.1 8.7 0.00 0.00 0.00 17 1013.4
20260502004540 74 360 4.3 9.6 0.00 0.00 0.00 17 1013.7
20260502003039 73 360 5.2 13.9 0.00 0.00 0.00 17 1013.8
20260502001535 73 360 7.0 13.9 0.00 0.00 0.00 16 1013.7
20260502000040 74 360 8.7 13.0 0.00 0.00 0.00 16 1013.7
20260501234535 74 360 10.4 17.4 0.00 0.00 0.00 16 1014.0